Theta_e
308 308 307 306 306 306 306 305 305 304 304 301 299 298 293 291 287 291 297 300 296 290 285 286 284 282 281 282 282 283 284 282 282 282 282 280 283 281 280 276 277 280 278 278 278 280 275 278 275 279 279 280 282 284 284 282 283 284 280 286 285 288 279 277 279 282 283 284 285 284 283 285 284 284 285 284 281 283 282 281 282 277 278 277 277 274 279
309 309 308 307 306 306 306 305 305 304 303 298 298 293 291 292 291 289 297 300 296 288 281 282 284 284 278 282 282 286 283 281 279 280 282 281 280 280 279 280 282 277 280 276 274 280 272 280 278 277 280 278 285 284 284 284 280 281 281 282 285 278 281 279 277 278 280 281 281 281 282 283 282 282 284 284 285 284 285 284 284 278 279 280 278 273 278
309 309 308 307 307 306 306 306 305 304 303 302 298 294 294 291 292 290 292 296 293 284 285 282 281 283 278 276 276 280 282 284 283 282 281 283 281 280 278 280 280 279 279 275 275 276 276 273 279 278 278 278 283 283 285 283 281 285 287 287 286 279 279 277 272 272 272 273 272 272 275 278 282 283 283 284 283 283 282 278 281 276 280 281 277 278 282
309 309 309 308 307 306 306 305 305 304 304 302 297 294 292 287 284 285 286 290 291 289 286 284 281 280 277 276 278 281 278 283 284 284 279 283 282 280 280 280 279 277 278 274 272 275 278 274 272 274 274 279 280 282 283 283 281 284 285 285 283 277 278 278 277 274 274 277 278 279 280 279 277 281 282 283 284 285 284 283 280 277 279 278 280 280 280
309 309 309 308 307 307 306 306 305 304 304 302 297 293 289 289 284 286 284 284 285 285 285 283 282 280 283 278 279 276 278 282 281 285 276 282 279 280 279 278 276 276 276 274 274 275 274 278 275 273 272 277 278 281 280 281 283 284 283 285 281 276 275 277 277 278 279 281 280 280 281 278 279 279 280 283 283 283 282 280 278 282 279 277 279 280 280
309 309 309 309 308 307 307 306 306 305 304 302 298 288 290 284 287 286 286 283 283 283 283 285 283 283 281 279 282 279 279 278 276 281 281 278 280 277 276 276 278 279 278 278 273 273 269 272 273 278 276 274 276 277 279 279 282 283 282 285 280 275 274 276 279 278 280 280 280 281 279 278 279 280 280 280 282 281 279 280 282 282 276 277 282 283 281
310 309 309 309 308 308 307 307 306 305 303 300 294 289 290 290 287 286 288 283 284 284 286 286 284 284 282 281 281 279 279 277 280 280 278 279 276 279 273 276 277 278 279 278 274 277 271 270 272 272 275 276 275 273 275 278 282 279 279 280 279 276 275 277 277 277 278 279 279 280 278 277 277 278 279 280 281 281 282 281 282 282 281 282 282 282 282
310 310 309 309 309 308 307 307 306 305 303 299 292 290 288 286 285 286 285 285 282 283 283 284 283 279 284 278 279 279 279 279 280 279 278 275 278 280 276 278 280 279 279 278 275 278 279 278 274 279 276 272 276 276 276 275 278 278 278 279 279 277 275 282 278 274 276 279 280 279 278 277 275 277 278 279 280 281 282 282 282 282 282 282 282 281 281
310 310 310 309 309 308 307 307 307 304 302 294 290 288 291 289 287 289 284 281 282 280 280 280 280 279 280 278 282 281 281 280 282 280 282 280 278 278 277 279 279 281 279 278 278 280 279 279 279 279 278 274 278 275 274 277 274 277 276 277 275 276 273 276 274 271 272 276 274 276 276 276 274 275 275 276 277 277 279 280 282 281 280 280 280 279 280
310 310 310 309 309 309 308 307 306 304 303 295 290 285 290 289 290 289 287 282 287 282 281 281 280 279 282 282 282 281 281 283 281 278 283 282 283 281 280 281 279 278 279 278 279 280 279 279 280 279 279 279 279 279 278 278 276 274 275 274 272 272 271 271 273 272 271 276 275 273 272 270 270 273 276 277 278 279 279 282 282 283 283 280 278 280 282
310 310 309 309 309 309 308 307 307 305 301 295 291 287 287 286 286 286 287 282 283 284 282 281 280 283 283 284 282 283 281 281 281 278 278 280 281 282 282 281 277 276 278 280 279 280 281 280 280 280 279 278 277 278 278 279 278 277 275 272 273 271 270 271 273 269 269 270 272 272 270 267 269 280 278 279 278 278 277 278 281 283 284 282 283 283 282
310 310 309 309 309 309 309 308 307 305 303 299 297 291 289 289 289 287 285 280 282 285 284 282 282 284 282 284 282 281 280 279 280 282 281 280 281 281 280 280 279 275 280 279 281 281 281 281 280 279 279 278 278 278 279 278 278 280 277 275 273 271 271 270 270 270 269 270 272 269 264 268 279 278 278 277 276 277 278 278 278 280 284 284 284 284 283
310 310 309 309 309 309 309 308 307 306 304 301 299 293 291 292 288 286 284 283 281 282 282 283 286 285 284 282 280 281 281 280 280 281 281 280 278 280 280 279 278 280 280 280 280 279 275 272 275 277 276 277 278 277 277 277 277 278 278 277 275 270 269 271 271 270 271 269 269 264 265 271 279 276 277 278 277 277 277 276 278 278 280 284 283 285 286
310 310 310 309 309 309 309 308 308 307 305 303 298 297 289 289 286 285 284 284 282 285 285 284 283 282 282 282 282 281 279 278 278 278 276 281 279 279 281 281 280 280 281 280 278 276 273 274 273 273 270 270 270 269 274 277 278 277 277 277 277 276 272 270 270 270 266 268 269 271 275 276 275 275 276 274 275 274 275 272 274 278 280 282 284 284 284
310 310 309 309 309 309 309 308 308 307 306 305 300 298 292 290 289 287 287 285 282 284 285 281 283 283 283 282 282 279 278 278 277 278 279 279 277 280 280 279 280 279 279 278 275 274 272 273 269 270 272 270 269 269 271 268 273 275 277 277 276 275 270 272 269 269 270 269 266 267 267 265 271 279 279 279 279 279 279 276 273 280 280 282 282 282 281
309 309 309 309 309 309 309 308 308 308 306 305 301 299 297 293 291 289 286 284 283 278 283 287 286 285 284 284 283 281 280 279 279 279 275 275 276 278 278 280 280 280 279 277 275 274 273 269 267 269 268 270 269 267 268 268 267 270 274 276 276 275 274 271 269 270 271 268 266 265 265 268 277 278 278 278 278 280 280 275 272 279 280 280 280 279 278
309 309 309 309 309 309 309 308 308 308 307 306 300 298 297 296 292 289 286 283 283 280 285 287 288 286 281 279 280 279 281 281 281 278 278 277 276 275 276 279 279 279 276 274 273 272 271 270 270 271 271 268 268 269 270 268 267 266 269 271 271 269 269 269 268 264 267 268 267 267 269 270 277 278 277 277 277 279 278 270 270 280 280 279 280 280 281
309 309 309 309 309 309 309 308 308 308 307 307 302 298 297 297 295 292 288 285 281 281 285 285 286 282 283 283 280 283 282 281 281 281 280 277 275 275 275 275 273 278 275 274 274 271 270 270 269 269 270 269 268 269 268 270 267 268 265 267 266 266 267 270 267 268 270 273 268 269 272 278 281 277 277 277 279 278 271 267 276 278 279 279 280 282 282
309 309 309 309 309 309 309 308 308 308 308 307 303 300 298 297 295 294 290 286 283 280 285 287 288 287 286 286 285 284 283 283 283 280 279 277 278 279 278 278 280 271 277 272 274 271 271 270 273 272 272 269 267 270 273 270 269 271 271 267 268 268 268 270 268 267 268 268 268 269 272 279 278 278 278 279 278 271 269 278 279 278 278 279 279 281 282
309 309 309 309 309 309 309 308 308 308 308 307 304 297 298 297 296 295 291 286 286 283 285 285 285 286 285 285 281 280 279 280 281 283 281 280 278 279 278 276 277 277 274 275 271 273 272 271 272 272 270 271 270 273 269 269 275 271 269 274 272 271 269 267 266 268 269 269 268 267 266 273 279 279 277 278 275 276 279 279 277 279 280 278 278 280 282
309 309 309 309 309 309 308 308 308 308 308 308 306 299 296 297 296 296 297 292 287 283 284 287 284 285 286 286 287 287 284 283 282 281 283 283 279 280 277 279 277 276 274 275 271 272 273 271 270 271 273 273 273 270 269 270 271 275 275 275 273 277 271 271 270 274 268 267 266 269 276 278 279 280 275 276 279 280 278 280 278 279 278 279 279 278 280
309 309 309 309 309 309 308 308 308 308 308 308 306 301 296 295 295 296 297 296 289 286 284 286 287 285 287 288 288 289 288 288 288 288 285 279 280 282 283 282 279 279 279 280 277 274 275 274 275 271 269 270 272 271 271 271 270 272 268 272 272 278 276 277 275 277 275 272 275 278 276 277 280 281 280 279 280 280 279 279 280 280 279 278 280 279 279
309 309 309 309 309 309 308 308 308 308 308 308 306 301 296 292 292 295 295 289 290 291 290 287 288 288 289 289 289 289 287 287 285 283 287 283 279 281 280 281 280 283 283 283 280 281 280 276 274 277 274 274 272 270 270 272 272 272 272 276 278 277 277 275 276 275 277 280 281 281 280 279 279 281 281 280 280 279 280 279 279 278 279 279 279 279 280
309 308 308 309 309 309 308 308 308 308 308 308 306 301 298 294 293 292 291 290 288 285 288 289 286 284 286 285 288 288 287 285 286 286 288 288 282 279 281 282 282 281 281 282 284 283 279 279 277 277 274 276 276 274 272 271 271 274 275 275 276 278 276 275 273 274 276 274 279 281 282 282 279 280 281 281 281 282 279 277 280 280 280 280 279 280 280
309 308 308 308 308 308 308 308 308 308 308 307 306 305 303 294 293 293 289 284 283 283 281 285 285 289 291 290 289 287 288 289 289 287 286 285 286 285 283 283 284 284 281 282 279 282 280 276 272 272 272 278 280 275 279 276 276 278 275 277 276 277 279 276 276 274 276 278 280 278 278 278 278 279 279 281 282 282 281 282 281 281 279 280 281 280 279
308 308 308 308 308 308 308 308 308 308 307 307 306 302 299 294 294 296 294 290 287 285 281 281 285 283 285 285 287 288 288 289 288 287 287 286 286 286 283 281 281 281 280 280 281 280 278 277 277 276 275 276 281 277 277 279 277 277 277 279 280 279 280 274 276 275 278 280 281 282 281 282 283 283 281 282 283 283 283 281 281 281 281 282 281 281 282
308 308 308 308 308 308 308 308 308 308 307 307 306 304 302 298 295 295 293 290 287 283 284 281 285 283 284 285 288 285 287 288 287 287 286 286 286 286 284 284 282 281 281 280 281 280 279 278 277 276 278 277 278 276 276 276 277 276 277 280 278 278 277 278 277 274 275 278 281 281 277 278 282 283 284 284 284 283 283 283 281 281 281 282 281 281 281
307 308 308 308 308 308 308 308 308 308 307 307 306 304 304 298 294 297 299 296 291 286 285 284 285 285 284 283 287 287 286 288 288 287 286 286 286 285 284 284 283 281 280 279 275 274 275 275 275 278 280 279 276 275 276 276 275 273 275 279 281 280 280 279 278 278 278 283 284 282 281 281 285 287 283 282 282 281 281 281 282 282 281 281 281 281 281
301 306 307 307 307 307 307 307 307 308 307 307 305 303 301 301 297 297 299 299 297 292 286 286 286 284 283 284 284 284 285 286 287 287 286 286 285 285 284 284 283 282 281 281 280 278 275 277 279 278 277 279 276 274 274 271 271 273 278 282 282 282 284 283 283 283 283 285 285 283 282 282 283 284 283 284 283 282 282 282 281 280 281 281 281 282 282
301 301 304 306 307 307 307 307 307 307 307 306 302 297 292 294 299 295 298 299 297 294 288 285 283 285 285 280 280 282 282 284 285 285 285 285 284 284 284 283 283 284 282 281 281 278 279 277 278 280 278 279 276 275 271 273 274 277 282 283 284 284 283 284 285 283 283 285 284 284 283 283 285 285 285 284 282 283 283 281 280 281 280 281 281 282 282
299 300 300 301 305 306 307 307 307 307 307 304 299 290 288 286 293 300 298 298 298 293 286 286 285 286 283 285 283 281 282 282 282 283 284 284 284 284 284 284 283 284 280 280 280 280 280 277 278 277 276 280 280 275 273 273 274 277 282 284 284 284 284 284 284 284 285 285 285 285 283 284 286 285 285 286 286 284 283 284 284 285 284 284 283 283 283
298 299 300 300 300 304 306 307 307 307 306 302 297 292 290 292 295 299 299 298 298 290 286 284 283 283 283 284 280 283 283 282 283 282 282 283 281 283 282 283 281 284 284 280 281 279 278 280 279 278 276 282 282 275 275 275 274 277 282 283 284 285 285 285 284 284 284 285 284 282 282 283 284 283 283 286 284 282 283 283 284 284 284 284 284 284 284
297 298 298 299 300 300 302 306 307 306 304 305 306 305 301 300 301 300 300 298 294 288 287 286 282 284 284 282 278 278 282 281 279 281 278 282 279 282 279 282 282 282 287 281 277 275 278 279 279 277 278 281 276 274 274 274 276 280 282 283 284 284 284 284 283 284 285 285 284 281 281 282 284 285 284 285 285 285 285 284 284 283 282 282 282 282 282
297 297 298 298 299 299 300 301 305 306 306 303 297 298 298 301 300 301 299 297 288 286 287 284 282 282 281 285 277 280 283 277 277 280 276 281 281 280 278 280 281 278 280 279 280 278 278 277 276 277 279 276 278 274 272 275 279 280 281 282 283 283 283 283 284 284 285 284 283 284 285 285 286 285 284 283 284 285 286 284 282 282 282 282 282 282 283
296 297 297 298 298 298 298 299 298 301 297 297 298 301 304 300 300 300 298 292 284 282 282 282 286 282 280 277 277 279 283 280 277 280 278 278 282 278 279 275 278 275 277 283 278 278 276 275 279 275 274 277 274 272 274 276 279 280 280 281 282 282 281 280 281 283 284 284 283 283 283 283 283 282 283 284 284 285 284 284 284 283 282 282 283 283 282
296 296 296 297 297 296 295 295 296 296 295 294 296 302 303 301 300 299 298 295 290 284 283 282 285 281 284 279 279 279 284 278 281 280 278 279 277 280 278 276 273 277 282 278 275 279 276 281 278 273 278 273 273 275 277 279 279 280 281 281 283 283 282 282 282 282 280 282 283 284 284 284 283 283 283 284 284 284 284 283 284 283 282 282 282 283 283
295 295 295 295 293 289 286 288 296 299 296 301 303 303 302 300 297 297 293 291 286 287 285 285 282 282 285 284 280 277 282 274 282 277 278 275 274 279 277 276 274 279 275 274 275 275 278 283 277 274 275 273 276 280 281 281 281 281 281 282 283 284 284 284 283 281 281 280 280 281 282 282 282 283 283 283 283 283 283 282 283 282 282 282 282 282 282
294 294 291 287 286 282 283 288 291 298 304 302 301 295 293 293 285 286 285 284 285 286 282 286 283 285 287 285 279 281 282 278 282 275 277 279 276 273 278 276 277 279 267 273 275 281 278 277 274 273 275 280 281 279 281 282 283 284 284 284 284 285 284 283 282 282 280 280 280 280 281 281 281 282 282 282 282 282 283 284 284 284 283 283 283 283 282
292 289 287 286 284 282 285 288 299 302 300 298 294 286 283 285 285 282 279 284 286 281 284 285 283 287 285 284 282 285 281 280 277 278 273 280 275 271 277 269 277 278 272 276 276 283 273 274 274 273 273 277 278 280 282 283 284 284 285 285 285 285 285 284 283 283 282 283 284 285 283 282 281 282 282 282 283 284 284 283 283 283 283 283 282 282 282
286 283 283 284 283 284 291 296 300 298 294 291 287 285 278 284 281 275 287 280 276 282 286 280 286 287 286 285 281 278 286 282 275 276 276 278 283 274 278 275 278 276 269 274 276 281 274 271 273 272 273 278 279 281 282 283 283 284 284 285 285 285 285 285 285 285 285 285 286 286 286 285 285 284 283 283 283 282 282 282 283 283 283 283 283 282 281
284 284 284 283 285 286 286 288 291 294 290 284 283 281 280 279 279 281 284 276 278 279 286 284 287 283 286 286 286 280 285 285 284 284 281 276 284 282 277 271 282 273 270 273 279 277 275 274 274 273 276 282 282 283 283 283 283 284 285 285 284 285 285 284 284 285 284 284 284 285 285 285 285 285 285 285 284 284 284 284 283 283 282 282 282 282 283
285 285 286 287 286 285 286 285 286 285 284 285 282 274 279 279 284 278 279 275 276 282 282 285 282 284 284 286 286 286 282 285 284 283 280 276 284 278 276 277 279 272 271 279 280 275 276 272 274 277 282 284 285 286 284 283 283 283 284 285 284 285 284 284 284 284 285 284 284 284 285 285 284 285 284 284 284 284 284 283 284 284 284 284 282 282 282
291 290 288 284 284 284 285 281 284 284 278 278 276 271 280 274 276 274 278 281 284 283 282 288 285 289 288 289 283 284 282 287 281 280 281 277 285 279 277 275 276 271 276 280 275 274 273 273 275 279 285 286 286 286 286 286 286 285 285 286 285 285 285 284 284 284 285 284 284 284 284 284 284 284 285 284 283 282 283 283 284 284 284 283 283 283 283
287 285 283 281 279 279 283 272 283 283 278 280 277 272 276 272 277 278 273 276 282 281 285 282 282 286 280 288 284 282 282 283 285 282 279 283 278 273 277 273 274 280 279 271 275 273 274 278 280 283 286 286 285 285 286 286 286 286 286 286 286 285 285 285 285 285 284 285 284 284 284 283 283 284 284 283 283 282 283 283 284 284 283 282 282 283 283
280 278 278 277 275 280 279 270 286 280 274 278 281 278 279 273 277 280 277 284 286 282 286 286 285 285 283 286 284 282 284 278 287 280 274 281 272 276 276 272 280 276 272 271 275 274 276 277 283 284 284 285 286 285 284 285 286 286 286 283 284 285 284 284 284 284 285 284 284 284 283 283 283 283 283 283 283 283 283 283 283 283 282 282 282 282 282
277 274 275 271 269 276 276 272 279 275 280 284 280 280 282 280 282 281 285 288 285 285 285 284 285 285 283 286 282 279 283 281 280 278 282 278 273 273 278 278 277 271 273 274 272 271 275 280 284 285 286 287 287 286 284 284 284 284 283 284 285 285 285 285 285 285 285 285 284 283 283 283 282 282 282 283 283 282 282 283 283 283 282 280 281 282 282
277 278 276 274 271 274 279 272 274 278 283 283 283 284 284 284 286 286 287 287 285 287 287 287 286 286 283 282 280 281 280 281 278 281 281 271 274 278 280 273 271 273 272 271 273 275 279 282 285 287 287 288 288 287 286 285 283 284 285 286 286 285 285 285 285 285 285 284 283 283 284 283 283 283 283 281 281 281 282 282 283 282 282 282 282 281 281
272 278 277 268 267 272 272 274 281 281 282 281 283 284 284 285 284 283 286 287 287 288 286 285 283 284 282 285 285 279 280 282 279 280 280 276 279 269 270 272 271 275 276 275 276 280 282 285 286 287 288 288 288 287 285 283 283 284 285 286 286 286 286 285 285 285 285 284 284 284 284 283 283 283 282 282 282 282 281 281 282 281 281 281 281 281 280
278 276 270 270 274 274 273 279 276 273 277 281 282 282 282 282 283 285 286 286 286 286 287 286 284 285 280 284 281 280 277 280 277 275 280 274 275 269 272 269 270 272 276 279 280 282 284 286 287 288 288 288 288 288 287 285 285 284 285 285 286 286 286 286 286 286 286 285 285 284 284 284 283 283 282 280 280 281 282 282 280 279 280 280 280 280 280
274 272 275 272 271 271 274 276 274 272 275 277 278 278 282 283 282 284 286 285 286 286 287 286 287 283 280 283 271 277 277 281 277 280 278 271 275 276 276 271 273 274 277 281 281 284 286 287 288 287 287 287 287 287 287 287 285 285 286 286 287 287 286 286 286 286 286 286 286 285 284 283 282 282 281 281 282 283 277 277 278 279 279 280 280 279 279
277 275 273 277 272 270 274 269 269 271 274 275 276 277 279 278 279 280 283 282 282 284 284 281 281 279 280 276 272 274 273 282 278 276 277 275 279 277 275 274 277 280 281 284 285 286 286 287 288 287 287 287 287 287 287 287 286 286 286 287 287 287 286 286 286 286 286 286 286 279 284 283 283 283 283 282 277 277 277 275 276 278 279 279 279 279 279
273 269 269 273 276 275 275 275 276 275 274 275 276 276 278 276 279 280 284 282 280 277 278 284 282 278 276 274 276 280 284 281 273 276 277 277 280 277 277 279 281 283 283 283 285 286 287 287 287 287 287 287 287 288 288 287 287 287 286 286 286 286 285 286 286 286 286 287 285 283 284 283 282 280 278 278 276 274 277 278 279 278 278 279 279 279 279
Wind_Speed
16 15 12 10 9 7 8 7 6 3 8 2 1 2 2 3 2 2 1 3 2 2 2 2 0 2 0 2 1 1 1 1 2 2 2 1 3 1 2 3 0 3 1 1 1 1 2 2 3 1 1 2 1 6 6 6 3 2 1 0 1 4 2 4 7 3 3 3 2 3 3 3 2 6 6 4 6 6 6 7 5 5 6 5 3 3 6
14 14 14 12 9 7 7 7 6 2 4 1 3 1 2 2 1 2 2 1 2 1 1 1 1 1 1 0 1 4 2 1 2 2 3 2 2 2 1 1 4 1 1 0 1 1 1 2 3 3 1 1 5 8 6 8 3 6 1 1 3 1 3 4 4 2 1 1 2 1 1 0 4 5 6 11 10 8 9 7 6 5 7 9 6 4 4
15 14 13 13 11 9 7 8 6 2 4 1 2 1 1 1 1 3 2 2 3 2 1 1 2 0 1 1 2 2 2 5 4 2 3 3 3 1 1 1 1 1 3 1 1 3 4 1 1 2 2 1 0 2 5 6 1 6 1 3 1 2 3 1 3 3 5 2 1 1 3 6 5 3 7 8 10 12 4 6 3 5 3 1 1 6 3
15 15 14 14 13 11 9 8 7 4 6 3 1 3 1 1 2 1 0 3 3 4 1 1 1 1 1 2 3 2 2 1 1 3 3 1 1 2 2 1 1 1 1 1 2 3 4 6 1 1 1 1 1 4 2 4 3 1 3 0 1 1 2 4 5 4 7 7 2 2 0 1 3 4 8 10 10 10 8 4 5 5 5 6 5 3 7
16 15 14 15 15 13 11 9 7 6 7 5 1 3 1 1 1 2 2 1 3 3 2 2 2 1 1 1 1 2 2 1 1 5 1 2 3 1 3 2 1 2 2 3 3 4 1 4 3 5 3 1 1 3 6 3 6 4 2 4 1 2 4 7 7 11 13 11 11 5 4 6 8 7 6 7 8 8 9 9 9 3 5 9 3 1 5
17 16 15 15 15 14 14 12 9 10 9 7 1 2 2 1 1 2 0 0 2 2 3 6 4 1 2 2 1 2 3 3 2 1 1 2 1 2 1 4 7 4 4 1 1 2 3 3 3 2 4 2 1 0 3 3 2 4 1 3 2 2 3 3 7 12 11 11 13 9 5 7 7 7 9 7 8 9 11 14 15 5 3 11 6 6 7
18 17 16 16 15 15 14 14 12 13 11 8 2 2 2 0 1 0 1 2 1 0 1 3 3 3 4 2 4 2 4 5 5 2 3 2 2 5 3 4 11 10 6 2 2 1 1 2 4 1 1 1 0 2 0 3 5 3 2 3 2 2 6 6 6 8 7 10 12 9 10 6 6 11 12 11 7 11 14 14 9 8 12 11 10 9 12
19 19 18 17 16 16 16 15 14 15 14 6 2 5 2 4 3 3 0 1 1 2 1 2 3 3 6 3 5 4 4 4 2 1 4 2 3 5 4 6 2 7 7 6 4 3 0 0 1 1 2 2 3 1 1 1 2 3 2 2 4 5 4 4 1 4 8 10 9 7 9 7 11 12 12 13 11 10 11 10 9 8 11 14 12 11 15
21 20 19 19 18 18 17 16 16 18 15 3 5 3 5 1 1 0 3 2 3 2 1 2 3 2 3 3 3 2 4 5 5 3 5 5 4 8 7 4 4 1 5 6 11 7 4 2 3 0 1 3 1 1 2 1 1 1 1 0 0 1 4 3 1 3 5 0 1 4 5 8 12 15 12 10 11 10 10 9 9 7 11 5 4 7 10
22 22 21 20 18 20 19 18 17 19 17 4 5 5 0 2 1 1 0 3 5 4 3 2 3 4 5 7 4 4 5 3 3 2 5 4 1 5 8 2 0 3 4 10 8 1 2 1 1 1 2 1 0 2 2 3 3 1 2 1 2 2 0 2 3 5 5 1 1 4 4 5 7 12 12 14 13 12 4 7 6 9 8 5 6 9 4
24 23 22 21 21 20 21 20 19 21 13 10 7 4 4 5 3 1 0 3 2 5 5 4 5 3 3 5 3 1 1 4 4 4 2 1 2 1 2 3 4 4 5 2 1 1 1 1 1 1 2 3 4 2 2 3 2 4 2 1 1 1 1 1 2 2 3 4 8 5 5 5 6 1 2 4 8 12 10 8 10 10 8 8 6 6 1
24 24 23 23 22 21 21 21 21 23 17 10 5 4 4 2 1 2 3 6 6 6 7 7 9 4 4 5 5 5 6 7 7 5 5 2 2 3 3 3 2 4 1 3 1 0 2 2 1 1 2 3 4 4 6 5 5 5 4 3 0 1 1 3 1 1 5 5 8 6 2 10 4 2 0 2 2 3 10 10 7 6 8 10 10 11 6
25 25 24 24 23 23 22 23 22 22 20 10 8 9 4 3 3 3 3 4 6 6 6 5 7 7 4 3 4 5 2 0 1 2 1 2 2 3 3 4 5 1 2 2 1 1 1 5 6 4 3 3 4 7 8 9 7 6 4 4 3 3 3 2 2 3 3 2 1 1 7 3 7 2 4 3 2 0 0 7 11 13 11 10 11 13 12
26 26 26 25 24 24 23 24 23 22 23 16 10 9 3 4 5 3 4 3 8 7 9 5 3 2 4 8 6 2 1 2 1 2 2 3 5 5 5 1 1 3 0 1 0 1 2 0 4 1 2 0 0 1 4 8 6 6 6 4 5 2 1 1 2 1 2 2 2 8 9 13 7 2 0 4 2 5 2 2 5 5 6 7 9 11 7
27 27 26 26 25 25 25 24 24 23 24 21 11 8 7 7 6 4 2 1 8 4 7 11 6 10 11 5 6 4 4 2 2 5 3 1 0 2 2 1 2 2 1 1 1 1 1 1 1 1 1 1 1 2 1 1 0 2 1 5 4 4 3 2 1 2 2 2 5 5 3 2 4 1 0 1 0 0 1 2 5 4 3 1 4 7 5
28 27 27 26 26 26 25 25 25 25 24 24 13 11 9 9 6 2 3 3 2 11 11 11 5 6 7 6 9 11 6 4 5 2 1 2 3 4 2 2 1 1 1 1 0 0 1 2 3 2 3 2 1 1 1 1 0 3 3 1 1 1 3 2 1 3 0 0 2 2 2 8 2 1 2 2 0 0 0 1 2 1 0 1 1 2 4
28 28 28 27 27 27 26 26 26 26 24 25 15 12 11 12 10 9 6 4 4 11 3 10 10 4 6 3 3 1 3 4 5 3 3 3 3 3 2 0 0 0 3 2 2 1 1 2 2 2 3 4 2 2 0 0 1 0 4 1 1 1 1 1 1 3 3 1 2 6 5 6 2 4 3 3 1 2 0 3 2 1 0 1 1 1 0
29 29 28 28 27 27 27 27 27 27 26 28 17 12 10 11 12 8 4 7 8 10 10 2 7 5 11 8 7 4 4 1 2 0 0 2 3 3 3 2 2 0 2 2 3 2 2 3 4 3 5 1 0 1 4 3 3 4 5 6 3 2 2 5 8 3 5 7 5 3 7 6 4 4 3 3 1 0 1 3 2 2 1 1 2 1 2
30 30 29 29 29 28 28 28 28 28 27 27 19 12 12 12 12 12 6 5 8 12 6 10 7 8 1 3 2 4 3 6 7 5 4 1 3 5 7 2 1 1 2 2 2 2 3 3 1 1 3 2 1 5 1 1 4 1 5 4 2 2 3 2 2 5 7 4 5 7 6 9 4 1 3 1 1 0 2 2 0 3 2 2 2 2 1
30 30 30 30 30 29 29 29 29 29 29 30 21 16 9 14 16 19 13 11 7 14 8 8 7 18 5 8 7 4 2 1 3 5 6 5 3 8 4 2 2 3 2 0 2 3 3 4 4 1 3 3 4 2 0 5 2 6 4 4 5 9 6 5 5 4 1 3 3 3 4 3 4 7 2 0 2 3 1 1 1 1 1 4 2 3 3
31 31 31 31 30 31 30 30 30 30 29 31 24 14 10 10 15 15 14 11 6 11 12 5 2 11 7 10 11 12 12 12 9 5 3 3 11 6 5 7 10 7 8 8 8 5 4 3 3 3 2 2 2 1 3 0 4 4 4 4 3 5 2 3 5 7 6 6 6 7 11 2 5 8 4 5 8 1 2 1 1 1 2 3 3 4 5
31 31 31 31 31 31 31 31 31 31 31 32 29 16 14 9 13 13 12 11 11 13 0 2 4 6 7 5 4 5 10 9 12 9 6 4 6 9 1 6 8 6 3 4 1 0 1 1 1 1 3 2 1 5 1 1 5 2 3 1 3 9 9 3 4 5 7 8 10 8 2 5 7 8 5 2 6 3 3 2 2 2 3 4 1 3 4
29 30 31 31 31 32 31 31 31 31 32 31 29 17 16 10 11 11 12 12 7 4 1 3 4 7 4 7 7 9 6 2 4 2 5 7 3 5 4 5 3 3 2 4 6 4 4 6 6 4 2 5 8 4 4 6 4 3 5 9 6 2 1 1 2 5 4 8 9 6 5 5 6 8 7 4 2 2 2 4 5 5 5 5 4 3 3
29 29 30 31 31 32 31 32 32 32 33 32 29 17 14 12 13 11 7 7 8 9 7 10 2 13 16 20 17 6 4 4 6 5 2 6 8 4 3 3 1 2 2 5 2 4 4 3 2 1 4 3 5 5 5 7 9 3 2 4 3 5 3 1 3 2 2 9 2 13 17 9 5 9 7 7 7 7 4 4 7 7 4 4 5 5 4
29 29 29 30 30 31 31 31 32 32 33 33 31 22 12 8 12 17 14 11 7 6 12 6 21 22 8 7 3 7 11 10 8 8 7 3 7 10 9 7 7 9 9 7 1 2 2 3 1 1 6 5 7 7 6 8 7 8 8 7 1 5 6 5 6 3 7 13 5 2 1 1 3 3 5 8 11 9 7 10 7 7 5 6 7 4 5
29 28 29 30 30 31 31 32 32 32 32 33 29 18 17 14 14 15 14 4 4 3 8 18 7 8 6 5 11 8 7 13 12 9 11 10 6 4 5 5 2 4 5 3 3 7 4 2 3 3 5 6 6 7 6 7 3 1 7 10 6 4 6 5 5 6 10 13 20 13 5 13 17 12 9 10 10 9 9 8 7 7 8 9 7 5 8
29 29 29 29 30 29 31 31 31 32 33 32 25 18 17 11 16 20 19 14 8 4 11 17 2 1 3 13 4 5 5 14 13 14 12 9 9 3 5 5 6 3 5 3 1 1 1 3 4 8 7 5 2 4 2 3 3 4 8 11 5 5 8 3 4 4 9 14 11 7 4 7 10 8 11 10 11 10 12 10 7 7 9 9 8 8 6
25 30 28 29 29 30 30 31 31 31 32 32 24 18 17 13 17 20 18 17 19 16 2 2 2 3 3 4 6 8 7 11 14 14 14 14 12 10 8 8 6 5 4 7 3 3 3 7 9 1 1 1 1 7 3 1 4 3 8 16 8 12 13 7 9 10 15 15 10 4 4 6 11 14 5 5 4 5 6 9 9 9 7 6 6 8 8
21 23 30 28 29 29 29 30 30 31 31 28 17 16 16 14 14 17 20 20 19 15 2 2 3 1 6 3 4 6 3 9 13 15 15 15 15 13 13 12 11 7 5 5 4 4 5 6 3 5 4 4 4 4 4 6 6 14 20 17 10 15 9 14 17 14 16 19 13 4 4 7 9 10 4 5 4 4 7 8 6 5 6 6 8 9 10
21 21 21 25 28 27 29 27 27 27 26 18 14 8 8 8 15 20 23 20 16 9 9 7 7 4 3 4 3 2 3 4 7 10 12 12 13 14 13 12 10 8 6 7 7 10 6 2 3 2 1 2 4 2 4 4 8 15 15 20 16 10 13 17 15 15 18 14 9 8 6 9 12 13 11 7 5 6 7 6 5 5 6 7 9 9 8
22 22 20 19 20 26 27 28 28 29 27 15 12 9 8 11 16 19 22 16 12 10 1 0 8 2 2 1 3 11 11 10 10 12 13 12 11 11 8 8 6 9 9 6 5 8 3 6 5 4 2 5 5 4 5 4 11 8 23 20 14 16 16 17 13 14 15 16 16 12 7 11 13 11 13 16 15 6 6 7 9 11 12 9 10 10 11
22 22 21 20 19 17 25 28 30 29 19 18 15 11 6 6 4 17 23 19 12 7 6 7 5 2 3 3 1 2 7 7 6 3 3 5 6 7 7 11 8 9 8 8 5 1 8 5 6 4 6 7 7 5 4 11 14 19 23 22 17 13 14 12 11 12 13 16 14 12 13 17 16 14 16 14 8 5 8 10 10 8 9 9 10 11 11
21 22 22 21 19 20 19 24 31 24 17 19 24 18 12 17 22 27 25 17 11 4 3 6 8 3 4 4 4 3 5 6 2 5 5 4 6 7 6 6 4 3 6 4 6 5 2 6 4 6 5 6 4 3 8 17 16 20 25 27 24 16 14 9 8 11 14 14 13 14 15 16 16 14 13 13 15 14 12 12 11 9 8 8 10 11 9
22 21 21 21 22 20 20 22 22 31 24 16 11 11 8 15 21 28 21 15 3 2 3 5 6 9 4 3 3 5 8 8 7 9 5 3 3 6 6 6 6 5 5 12 4 2 2 2 9 5 4 6 4 4 16 12 12 25 26 25 27 25 11 10 11 14 16 9 7 13 17 16 13 10 8 8 12 14 13 9 6 7 9 9 11 12 10
22 20 19 20 19 21 24 23 14 14 14 12 11 10 15 23 21 26 25 11 8 4 3 3 2 10 5 1 6 5 8 4 7 9 7 3 4 7 4 5 5 7 6 4 1 9 6 6 4 3 13 4 4 15 14 7 21 24 20 22 28 25 10 9 16 21 17 9 7 10 12 11 11 11 13 15 16 15 13 14 11 9 11 12 14 12 9
19 18 18 18 21 17 11 12 10 9 10 9 10 13 27 29 27 22 22 18 10 8 9 8 8 10 9 12 12 4 8 0 2 5 2 4 1 1 2 4 5 7 2 5 9 7 8 7 6 11 5 6 20 16 14 16 22 22 22 25 28 21 15 17 15 6 5 7 13 14 16 15 15 16 14 14 13 13 13 14 15 12 10 12 15 14 10
22 20 21 19 9 4 6 6 6 12 7 6 10 14 22 23 12 16 13 11 2 0 7 11 10 14 16 12 4 3 9 8 7 5 5 5 7 2 4 4 8 3 4 3 5 9 6 7 6 10 11 19 23 11 13 12 18 25 26 26 23 16 13 14 10 6 7 9 11 12 13 14 14 12 13 13 14 13 11 15 17 15 16 16 14 13 13
20 21 10 2 1 5 5 5 6 4 11 11 19 9 11 12 4 5 1 6 3 4 2 4 13 11 5 8 8 10 9 7 8 10 6 4 7 3 3 2 6 6 8 7 8 6 4 5 9 14 18 19 15 5 12 17 25 25 24 18 15 15 14 9 6 8 11 12 13 15 14 14 15 13 13 15 14 16 17 16 14 12 12 12 12 11 9
16 8 7 5 5 7 5 2 6 12 9 6 6 4 3 1 6 6 6 3 4 8 4 8 12 12 12 14 2 3 6 11 11 7 9 10 7 5 4 6 6 4 4 3 6 14 6 7 4 6 18 21 16 22 19 21 25 24 21 17 17 18 13 9 9 15 17 19 21 17 13 15 16 17 14 14 14 14 14 13 14 13 12 12 12 11 10
3 7 4 3 7 7 3 11 12 7 4 9 3 4 5 4 7 5 5 7 4 2 5 11 8 12 18 21 14 10 6 11 13 13 10 5 2 7 4 3 4 5 7 10 6 9 8 9 7 5 18 23 19 20 18 24 27 29 23 18 17 17 14 13 13 14 16 18 17 16 14 12 11 12 12 14 13 12 12 13 14 13 12 13 12 11 12
4 6 6 5 2 2 4 7 7 6 5 6 3 2 4 6 4 3 5 10 9 5 4 5 7 6 6 5 11 15 8 2 2 5 6 7 5 6 6 7 5 5 5 8 3 6 4 3 4 11 23 23 9 16 19 21 23 26 24 19 14 14 15 15 16 15 14 17 16 15 17 17 16 16 15 15 13 13 13 13 13 13 12 12 12 12 11
2 3 2 3 2 3 4 2 3 5 4 3 5 6 5 3 4 3 3 11 10 6 7 10 15 17 17 20 16 7 3 3 4 4 5 6 7 7 6 2 2 5 6 4 7 4 6 7 9 15 22 21 9 11 11 16 21 23 26 20 13 15 15 15 17 16 15 18 17 16 15 15 17 16 14 13 14 15 15 14 15 15 15 12 7 8 9
13 9 3 3 3 4 2 5 5 4 6 4 2 3 6 7 6 8 4 1 2 5 8 5 1 4 3 6 3 1 7 8 7 5 5 7 4 3 5 4 4 6 5 5 6 6 9 8 10 21 21 15 9 13 14 16 16 14 18 14 12 15 15 16 16 18 17 16 18 17 16 16 18 17 14 12 13 15 14 13 15 15 13 10 10 10 10
6 4 4 4 5 5 4 12 3 6 6 2 6 10 7 8 8 5 4 6 5 4 10 17 15 18 15 13 11 6 5 1 2 2 2 3 5 5 5 6 7 1 5 3 5 8 11 8 13 16 18 12 6 10 12 13 15 12 13 10 10 12 12 13 13 14 15 14 13 13 12 13 13 13 12 12 13 16 15 14 14 13 11 8 10 11 10
5 4 4 4 5 4 7 7 5 8 9 8 4 7 8 14 14 15 15 8 10 15 14 13 14 17 15 7 6 1 3 5 4 6 7 6 3 5 6 6 5 3 5 7 4 2 3 10 11 17 21 20 16 12 8 11 10 13 13 5 10 12 12 14 16 14 14 13 14 12 12 13 12 13 13 14 13 12 13 14 13 10 10 10 10 10 11
6 5 5 6 6 6 6 3 5 10 7 1 3 4 7 9 12 13 8 10 15 13 15 15 14 14 12 9 9 7 4 5 8 6 5 4 7 8 5 1 3 6 5 4 7 11 14 15 18 20 21 23 20 11 9 11 9 6 5 11 13 11 14 14 14 14 15 14 11 11 12 10 12 13 13 14 12 10 11 12 11 10 9 8 11 14 12
7 4 2 4 6 7 5 8 9 4 1 3 4 8 9 6 10 11 13 13 14 14 15 17 19 18 18 12 6 2 2 3 6 5 4 4 7 4 4 6 8 6 10 11 10 8 10 16 19 20 20 19 19 14 12 12 9 11 14 15 11 11 13 14 14 15 16 12 10 12 12 12 12 13 11 8 9 10 12 12 12 11 11 14 13 9 9
7 3 5 6 5 4 11 8 6 10 12 9 2 3 5 6 5 8 7 10 14 14 14 12 7 5 2 2 5 10 10 8 8 7 5 4 2 3 3 3 4 3 4 10 14 12 15 17 20 21 21 20 17 13 10 10 11 15 16 16 15 13 13 14 14 16 14 12 14 15 14 12 12 12 12 13 12 10 9 11 13 10 10 10 9 10 10
5 3 4 4 4 6 3 3 3 5 8 9 8 5 5 8 8 8 8 6 10 17 18 19 14 11 8 10 9 8 9 6 8 5 5 3 7 7 7 8 10 12 7 9 13 15 19 20 20 19 19 18 15 15 13 11 12 14 15 16 17 17 13 14 15 15 12 12 13 14 14 14 12 11 10 7 8 12 13 11 9 7 10 12 12 12 11
7 5 5 4 4 5 3 7 8 9 7 8 8 8 5 4 6 6 6 5 9 8 10 7 9 10 8 11 5 8 6 8 5 4 9 11 9 5 5 10 11 11 12 12 14 15 17 17 17 18 17 17 16 16 15 12 11 13 14 16 16 14 12 13 13 12 13 13 14 15 15 11 10 10 11 14 15 13 5 5 9 11 12 12 12 11 12
4 4 4 6 10 10 8 11 9 8 7 5 5 6 7 6 5 8 3 5 10 10 9 11 7 4 6 4 5 8 5 5 5 12 11 10 6 7 14 16 11 10 12 14 17 18 17 17 17 15 14 16 18 19 15 12 11 14 16 15 15 12 9 8 11 13 13 14 14 12 13 13 13 13 13 10 6 6 6 6 7 10 12 12 11 13 13
4 5 5 6 7 8 9 8 9 9 9 11 10 8 5 10 8 8 5 7 10 8 9 5 6 4 4 10 7 3 4 6 7 8 11 5 4 11 12 12 12 14 16 16 16 16 16 15 14 16 16 17 17 17 17 15 15 14 13 14 13 12 12 12 12 13 12 13 10 12 12 12 11 8 6 7 6 6 8 10 10 11 13 11 12 15 15
Wind_Direction
253 254 234 236 246 261 277 291 310 32 1 280 200 169 242 202 237 35 225 166 227 219 247 112 114 223 43 325 247 194 251 189 165 172 157 224 205 235 201 208 155 228 219 24 304 239 271 231 227 205 258 245 176 153 140 114 147 134 287 161 175 153 218 260 257 253 35 6 41 29 52 104 284 236 218 213 230 201 239 263 326 318 300 292 257 199 262
244 249 251 237 233 247 259 274 292 79 56 335 314 233 238 244 139 158 95 230 251 237 264 224 209 130 309 243 243 171 241 223 169 228 181 203 145 232 225 158 200 259 46 102 251 58 297 211 257 293 173 261 96 145 145 157 163 199 224 156 140 158 210 194 290 266 215 269 328 288 346 214 218 237 206 214 236 237 241 272 285 277 254 248 288 281 283
239 240 234 224 226 225 233 260 262 167 143 72 283 250 316 9 49 81 140 181 231 235 358 308 313 314 321 356 285 190 265 209 213 205 207 195 228 245 243 38 79 194 105 221 301 276 210 297 332 22 278 256 323 171 169 187 224 246 59 51 44 206 270 241 254 293 309 310 62 266 220 220 211 235 231 211 210 224 229 248 211 232 261 226 260 273 286
237 238 227 218 218 215 213 224 249 207 152 185 233 270 292 184 278 125 172 183 209 268 160 248 248 246 168 288 242 180 212 114 252 128 292 198 231 254 0 249 125 227 158 220 215 260 212 188 292 346 290 221 250 174 237 179 230 4 20 291 229 266 257 223 219 218 237 253 249 209 124 315 213 238 198 225 210 216 205 271 304 255 279 305 251 241 309
235 233 229 219 214 210 204 206 218 192 164 173 234 280 200 13 240 205 214 95 230 255 178 194 159 245 128 267 116 236 221 133 185 184 228 182 154 237 204 193 153 209 164 229 240 199 204 229 292 238 223 288 156 173 173 227 243 269 292 216 263 258 266 228 223 236 243 253 267 247 188 254 255 265 254 208 198 192 195 203 221 182 18 300 232 197 339
231 229 226 215 209 207 205 203 201 163 167 170 220 246 164 181 239 102 126 275 211 183 224 186 220 139 84 273 108 247 187 187 212 67 271 44 283 208 235 205 233 217 190 109 274 148 203 193 223 215 204 253 196 234 226 220 175 155 223 168 208 254 254 236 195 242 236 248 256 246 207 219 239 245 252 247 206 187 198 223 231 246 205 237 253 337 317
229 227 224 217 210 206 203 199 188 158 162 154 228 248 220 200 343 135 17 175 309 99 76 160 211 212 174 264 177 242 205 230 201 174 132 182 237 190 251 220 215 223 232 202 251 191 307 267 229 233 192 214 273 245 26 265 199 191 210 174 209 303 249 254 224 262 259 251 248 239 218 231 236 242 246 247 231 216 213 231 233 222 242 249 282 299 282
225 225 224 221 213 206 203 199 185 162 157 157 208 245 205 207 175 227 97 267 239 153 162 188 162 228 187 200 218 189 205 216 111 14 149 197 221 168 235 254 195 195 209 202 210 220 153 178 255 189 166 280 193 275 111 134 229 232 228 184 195 143 281 32 268 270 272 258 242 219 208 224 248 243 235 233 235 248 240 242 248 242 264 263 266 282 282
221 221 221 221 212 206 201 198 185 165 152 158 204 251 206 296 352 319 140 204 188 106 183 186 189 240 178 204 235 173 215 231 190 208 188 194 171 174 210 228 237 195 188 212 236 249 299 286 259 189 190 223 176 162 246 130 169 219 269 186 301 127 272 334 327 309 293 357 105 223 229 233 245 262 244 227 220 233 234 226 226 198 235 247 250 259 256
220 219 218 218 208 202 202 197 185 172 171 199 166 235 253 73 136 119 128 257 162 160 154 207 143 234 204 188 212 192 224 179 132 276 194 211 91 186 195 255 51 223 200 232 238 287 59 43 51 345 331 13 218 203 160 171 171 169 206 122 224 200 264 341 314 320 273 214 219 271 280 299 289 260 245 217 211 213 243 244 227 211 206 235 234 235 226
221 219 217 215 213 203 201 197 187 179 173 204 196 212 156 176 172 119 356 257 212 187 146 214 174 236 137 197 210 175 139 161 179 177 259 103 227 109 150 153 171 258 225 226 168 167 352 19 305 130 220 239 243 243 206 186 212 192 180 175 218 119 165 260 300 258 274 309 337 328 349 315 251 213 197 156 188 201 219 234 222 225 168 222 213 243 226
222 220 217 215 212 209 202 197 188 182 188 208 201 237 196 141 122 167 180 214 239 172 186 209 186 230 190 212 185 200 201 196 212 198 233 154 141 158 152 217 106 249 178 226 230 187 240 225 285 273 263 240 226 239 225 222 219 207 213 189 214 196 201 237 203 258 278 320 343 348 286 239 238 200 123 56 91 149 212 252 267 249 229 243 271 273 257
222 220 218 216 214 210 206 200 193 185 190 196 195 226 200 155 147 177 201 220 238 169 205 234 219 213 186 166 195 232 187 148 51 25 292 144 181 191 197 177 203 186 196 150 225 268 330 297 287 246 228 176 218 217 232 229 228 217 193 218 180 209 181 265 283 202 313 352 252 300 239 245 300 72 100 63 51 328 19 297 261 246 234 220 238 249 254
223 221 219 217 215 211 208 203 199 189 189 188 205 212 163 161 178 191 198 189 239 204 212 249 159 216 188 216 206 178 92 233 74 66 245 218 221 201 204 170 108 149 106 121 82 103 324 160 313 326 292 15 315 324 225 206 213 211 206 199 216 272 318 125 275 185 216 242 272 241 299 321 337 82 234 161 168 184 138 4 287 231 213 199 229 251 268
222 221 219 217 215 214 210 206 202 193 188 189 204 201 181 194 197 193 264 250 249 239 175 225 171 212 207 206 171 185 205 189 164 250 181 60 42 36 53 97 204 118 162 120 166 182 222 327 332 294 279 66 276 255 132 148 349 1 241 189 202 219 183 310 118 266 151 302 324 335 351 304 279 247 298 269 170 166 238 121 295 349 6 262 224 257 272
222 220 219 217 215 214 212 209 205 198 188 189 201 206 204 191 189 162 208 228 247 249 218 219 167 177 195 204 185 188 195 184 206 169 189 205 174 113 73 60 61 183 42 110 243 161 216 150 233 195 243 240 289 26 258 120 301 314 340 108 266 269 315 288 178 271 12 165 194 237 248 245 205 246 229 236 108 68 283 66 320 262 210 345 20 299 311
221 220 219 217 215 213 212 211 206 202 190 185 202 201 217 172 182 187 199 235 226 235 67 193 196 159 110 75 64 271 194 212 162 178 227 195 184 133 126 217 173 142 171 123 200 175 199 226 269 262 306 143 135 239 119 253 181 146 336 311 186 262 226 125 265 257 219 181 234 245 222 259 264 199 217 203 153 133 34 4 282 257 200 255 124 128 295
221 220 218 216 215 213 211 210 208 204 197 187 194 203 211 176 183 160 206 218 229 253 232 211 176 171 200 177 189 170 130 106 93 51 95 104 126 160 167 147 95 324 160 142 168 181 226 212 201 202 230 237 198 49 240 164 200 188 179 165 159 191 237 190 215 195 228 222 265 311 284 283 273 198 165 159 187 87 10 216 231 204 170 197 152 170 139
221 219 218 216 214 213 211 209 208 206 200 188 194 211 215 172 175 183 187 218 217 245 166 211 196 215 191 70 120 150 184 167 160 154 146 132 212 137 139 195 164 133 180 215 139 205 186 233 197 209 233 265 129 206 252 187 224 88 117 133 172 211 169 209 165 238 211 196 201 237 270 254 158 42 130 201 106 186 212 235 95 145 184 208 182 164 188
222 220 218 216 214 213 211 209 208 207 203 190 185 216 192 174 188 182 187 211 209 245 205 207 177 218 189 180 163 144 112 327 224 177 164 193 101 139 86 60 283 106 128 246 200 235 194 222 192 160 257 203 225 179 299 248 145 165 187 209 166 189 155 201 190 209 171 207 223 341 312 282 104 128 63 47 140 231 208 196 300 216 204 171 202 178 216
223 221 219 217 215 213 211 209 208 206 203 193 186 207 208 191 183 192 197 199 217 254 247 205 250 231 209 219 192 177 165 197 177 210 190 137 172 158 189 230 174 166 181 173 184 210 183 221 163 192 211 163 233 65 224 332 285 258 144 193 222 182 138 193 216 182 148 169 173 207 211 171 183 150 180 220 208 186 188 146 236 252 190 216 182 223 211
225 223 220 218 216 214 211 209 207 206 204 195 188 202 219 183 183 189 195 197 222 229 331 225 242 254 251 260 240 204 204 211 195 170 157 142 199 194 132 114 152 176 170 157 157 8 286 195 91 152 217 241 34 213 224 252 254 255 339 62 297 194 197 183 182 205 171 194 213 234 220 186 213 208 224 211 229 190 171 155 180 178 246 210 180 226 220
229 226 223 220 217 215 213 210 207 206 203 197 191 203 211 148 191 178 167 214 248 310 243 265 276 274 264 257 233 235 222 107 106 104 146 135 183 241 212 150 194 206 156 183 183 171 167 149 209 178 217 191 184 212 256 203 269 161 195 215 234 310 232 81 63 263 276 262 220 248 264 213 218 240 238 248 270 259 175 199 242 243 218 189 202 221 196
228 228 227 224 220 216 214 212 209 206 204 199 193 201 202 174 164 143 186 219 211 246 258 222 176 242 220 235 230 218 138 179 201 201 188 150 190 208 280 259 102 111 220 223 188 147 188 158 212 130 223 211 133 191 209 251 219 199 276 272 239 232 142 121 189 267 49 276 206 212 239 256 225 223 246 258 245 242 197 203 219 244 223 229 233 222 215
228 227 227 227 224 220 216 213 210 209 206 201 198 204 184 153 169 164 162 189 205 162 241 219 210 231 206 232 109 201 208 203 201 188 201 206 209 210 214 188 174 185 204 187 134 97 85 151 146 188 221 242 149 247 167 240 271 149 227 237 167 292 168 187 219 209 204 247 227 221 140 222 234 202 237 249 256 256 231 226 234 234 230 219 237 212 249
228 227 227 226 225 221 218 215 212 210 207 203 198 197 199 190 173 171 176 163 80 173 226 250 257 51 151 138 206 205 161 183 195 189 202 207 205 221 129 108 72 49 90 112 155 190 175 201 184 191 187 265 159 229 218 197 218 238 213 239 185 177 116 226 164 196 252 283 273 257 315 300 279 258 239 236 237 243 256 242 239 243 250 253 251 214 229
231 227 226 227 224 223 221 220 215 212 208 204 200 201 201 178 169 176 185 174 134 298 231 248 160 344 129 215 196 92 160 180 192 196 201 208 205 159 136 148 136 109 128 88 19 173 288 221 169 224 190 246 145 239 116 294 211 244 251 244 122 108 211 185 116 228 255 237 257 103 183 253 267 243 237 243 239 234 246 256 249 233 234 242 252 261 236
260 233 226 224 225 223 222 220 217 213 210 206 203 203 201 185 186 191 186 169 181 213 132 233 171 205 81 262 208 184 180 179 185 190 198 206 202 191 178 172 149 147 163 142 160 178 189 201 224 211 290 204 73 264 152 243 59 279 244 244 165 208 213 164 216 215 249 254 249 205 211 238 263 270 232 216 220 192 217 235 237 242 229 224 225 251 269
311 273 232 226 223 222 220 218 216 215 211 208 205 205 207 195 184 198 193 195 193 214 166 104 40 76 206 236 87 147 185 183 187 192 199 201 198 199 199 193 192 181 165 188 183 165 192 223 150 169 190 203 122 254 102 212 188 234 237 241 195 220 199 214 226 236 252 258 262 212 209 240 264 277 262 263 231 189 224 232 226 216 219 217 219 225 234
296 305 292 242 225 223 221 219 217 216 213 211 206 206 206 216 199 196 197 193 195 201 208 206 236 235 49 69 208 151 138 172 184 188 194 195 198 199 201 193 206 186 190 199 190 221 198 201 202 216 226 162 171 229 187 192 225 241 249 248 233 223 215 224 225 219 242 248 258 251 234 250 259 266 272 267 238 206 232 242 223 229 233 220 226 238 229
294 297 301 306 266 230 220 215 211 209 207 208 203 212 193 223 213 195 186 187 189 189 192 160 231 71 267 217 149 186 173 163 177 183 194 194 198 194 190 181 211 179 204 207 204 232 129 222 145 241 121 197 179 226 201 197 249 259 250 243 233 227 229 233 218 228 240 253 256 259 259 257 261 275 275 265 260 243 256 260 250 237 240 241 241 239 246
290 292 299 299 308 282 236 221 216 211 208 207 207 201 209 242 89 132 167 184 162 161 164 203 251 246 264 202 229 240 152 162 139 123 152 149 183 175 184 188 198 188 207 205 220 193 228 200 211 188 157 190 181 263 221 241 241 249 261 260 236 228 234 233 231 228 228 234 242 262 261 257 250 240 254 264 266 226 219 234 240 245 235 235 241 241 241
282 289 292 297 299 305 300 246 225 216 210 213 215 208 115 132 149 156 169 157 170 181 135 196 205 160 225 212 89 324 143 106 142 150 195 178 176 145 183 179 181 179 199 179 206 215 192 188 200 218 216 128 186 227 225 233 231 249 254 261 264 237 231 225 218 228 229 224 198 214 234 241 248 243 242 255 266 261 248 246 251 250 252 249 252 254 253
280 281 286 291 297 303 303 304 255 220 223 217 225 203 193 160 150 156 157 152 120 112 147 182 180 210 218 100 76 205 162 159 170 161 177 162 166 146 178 143 185 170 223 201 206 136 288 157 196 208 79 219 203 266 250 227 220 243 248 255 260 260 227 229 237 242 238 225 192 219 231 242 249 259 262 250 251 259 263 252 241 255 254 252 253 251 254
276 282 285 291 295 301 307 303 288 232 216 216 218 204 181 159 157 154 157 147 141 196 164 266 212 210 187 101 220 182 159 140 170 193 166 158 138 160 145 137 185 190 229 94 250 214 194 206 132 163 224 118 153 233 239 207 230 234 240 250 255 255 250 230 238 233 241 237 226 228 237 240 249 249 246 250 253 255 262 267 255 242 253 257 258 255 250
284 288 293 297 303 307 306 295 259 238 218 210 207 188 181 165 164 168 166 174 169 161 182 200 183 208 193 222 226 176 143 91 156 94 133 125 71 248 132 134 187 220 51 173 216 181 202 160 129 231 153 178 226 219 229 215 236 241 234 236 246 240 230 224 239 227 208 204 222 235 240 241 238 241 242 246 248 254 253 260 265 256 244 249 257 258 251
282 287 293 299 310 304 267 257 251 230 227 183 196 173 162 152 170 171 182 174 352 321 174 174 189 203 195 210 67 200 142 179 156 120 161 154 169 139 143 201 199 143 99 237 232 200 197 147 215 237 206 218 238 205 226 226 233 239 238 234 242 252 248 245 234 232 238 228 222 229 232 235 237 239 243 245 245 248 252 252 250 251 252 248 249 252 252
291 287 284 282 235 269 273 237 227 194 208 147 107 99 158 147 122 149 157 204 198 104 259 193 204 192 185 197 205 184 156 200 129 155 161 168 128 221 180 187 212 143 201 214 221 135 114 175 224 233 248 239 249 167 205 227 239 242 243 245 243 241 238 240 193 198 226 248 246 233 234 236 239 235 232 242 241 244 242 246 252 249 248 251 251 250 257
283 278 261 198 217 227 226 247 302 183 151 122 139 114 182 280 135 183 190 134 167 208 199 183 199 185 184 198 151 131 172 164 160 176 160 196 137 198 146 164 243 145 232 205 226 145 184 216 250 247 257 247 230 232 217 233 244 246 242 237 240 246 238 226 189 204 214 224 236 233 209 220 226 237 230 240 241 242 246 250 251 251 248 247 248 247 248
248 255 227 216 226 241 259 290 272 193 181 191 201 156 166 209 178 195 147 169 212 213 162 213 194 195 192 192 165 195 204 162 165 192 174 151 153 148 181 140 233 133 208 213 196 143 170 203 201 214 259 251 227 224 215 225 237 245 244 236 234 240 239 231 229 223 229 240 243 252 247 238 224 223 226 229 232 237 241 242 244 248 246 246 242 238 240
236 244 252 254 292 359 317 317 308 221 204 174 169 224 157 182 189 198 164 189 175 183 174 161 162 193 189 175 171 202 192 77 33 72 140 178 181 106 161 181 210 150 221 194 166 144 189 236 199 215 241 246 206 219 213 223 232 245 247 238 226 232 236 235 235 228 227 240 242 244 247 244 241 236 233 237 239 239 240 243 245 242 241 242 240 236 240
217 251 287 302 276 265 270 269 188 260 264 208 193 203 177 170 156 180 214 165 187 154 180 170 195 192 194 185 194 156 109 148 127 147 141 191 187 150 182 174 220 166 198 191 121 156 177 210 223 243 246 247 210 223 207 216 227 232 242 238 218 226 226 229 235 234 222 231 236 235 239 239 242 242 236 231 232 235 241 244 248 252 249 248 239 239 235
244 270 322 312 283 241 200 238 199 207 226 218 153 185 176 172 201 151 180 147 269 164 188 152 271 84 21 107 11 204 161 171 149 185 174 183 124 105 181 180 191 200 201 99 138 172 195 211 226 240 248 249 210 222 222 221 230 227 238 235 208 219 218 222 225 233 229 224 231 229 230 232 236 239 236 230 231 236 237 235 238 245 247 243 236 236 236
239 214 234 219 232 235 228 249 196 227 235 224 186 199 153 138 178 137 91 189 146 170 183 172 184 171 189 182 165 139 109 147 192 124 153 189 135 164 175 207 193 163 61 67 192 195 206 218 232 246 254 252 220 220 218 222 229 226 238 225 196 209 209 215 224 230 235 229 230 229 225 229 234 240 235 229 221 225 232 233 234 233 240 234 238 235 234
224 213 202 233 229 213 207 236 190 232 232 226 216 218 183 192 176 169 179 176 184 190 181 195 178 188 181 144 68 305 163 160 179 160 197 160 122 214 183 194 146 115 156 189 178 179 208 242 238 244 251 254 242 225 213 218 213 210 227 204 200 199 194 206 220 221 231 226 223 217 217 220 220 231 229 228 224 217 222 233 235 225 230 226 234 240 236
214 203 199 231 234 218 224 248 197 226 228 233 246 286 232 198 183 191 177 161 181 177 184 180 179 184 180 168 159 172 140 149 171 203 159 140 154 201 172 55 67 149 188 181 182 192 203 219 232 236 238 241 243 219 192 215 205 197 184 228 222 193 205 209 218 218 226 226 220 211 222 207 213 223 229 227 223 218 216 227 229 222 221 215 227 230 233
243 231 222 241 248 239 224 239 237 243 79 89 25 353 331 288 226 187 177 182 189 186 179 180 183 182 171 169 136 111 136 192 179 197 119 136 182 143 110 125 203 183 182 193 196 195 213 229 235 239 237 239 240 224 200 209 182 187 206 229 222 201 205 209 217 220 227 222 217 218 222 217 214 220 227 230 225 215 217 219 226 218 209 219 226 222 225
229 213 212 222 217 206 230 237 263 283 284 277 349 356 322 334 303 248 229 197 178 169 170 154 143 107 186 295 190 181 172 179 178 208 164 175 90 65 155 175 199 190 192 188 198 198 215 224 228 232 235 234 234 231 209 199 187 195 209 223 228 221 209 208 215 223 223 214 216 218 221 219 217 217 218 222 228 225 213 218 222 214 211 224 226 222 220
222 236 215 228 229 247 263 337 20 281 280 298 295 312 339 325 301 261 232 230 203 195 171 168 168 160 195 167 180 171 197 181 196 206 130 153 196 188 172 185 179 198 202 187 201 202 215 225 229 230 234 236 232 231 224 198 195 199 206 217 226 225 213 209 216 221 216 216 218 213 214 215 211 215 218 215 227 239 226 217 210 203 207 214 220 220 220
217 223 235 262 308 292 305 307 299 294 312 295 298 296 305 323 333 340 6 296 249 236 196 188 171 178 171 158 174 201 195 180 179 188 192 199 196 160 186 209 204 186 183 186 207 215 221 227 232 235 236 237 238 234 230 218 195 200 208 217 226 228 212 200 213 217 215 218 222 213 206 205 202 204 203 210 217 231 219 176 197 207 215 216 216 217 219
216 232 239 212 233 252 257 255 258 276 279 289 319 325 339 317 321 309 20 21 332 301 233 203 176 125 167 142 138 189 216 142 153 212 199 195 177 186 206 206 188 169 200 199 205 214 217 221 226 232 233 234 236 238 233 225 207 206 212 215 223 228 219 196 206 211 219 228 226 214 203 202 205 206 211 208 214 209 218 228 214 212 219 218 214 214 220
217 203 209 218 224 242 252 269 270 272 281 283 289 291 306 291 295 286 307 337 315 302 275 260 199 198 181 201 189 136 147 164 220 192 205 222 180 201 212 195 180 186 191 198 210 216 225 227 227 226 225 229 232 234 233 227 225 220 215 216 214 214 220 219 213 211 217 236 224 207 206 200 205 199 182 179 184 182 211 232 225 218 220 219 217 214 217